Weather History for Fort Eustis, VA

Change the Weather History Date:

Sunday, December 23, 2012

  Actual Average Record
Temperature  
Mean Temperature 40 °F -  
Max Temperature 52 °F 48 °F 68 °F (2011)
Min Temperature 28 °F 33 °F 22 °F (2008)
Degree Days  
Heating Degree Days 25    
Moisture  
Dew Point 24 °F    
Average Humidity 53    
Maximum Humidity 83    
Minimum Humidity 33    
Precipitation  
Precipitation 0.00 in - - ()
Sea Level Pressure  
Sea Level Pressure 30.04 in    
Wind  
Wind Speed 4 mph (SSW)    
Max Wind Speed 8 mph    
Max Gust Speed -    
Visibility 10 miles    
Events      
Averages and records for this station are not official NWS values.
T = Trace of Precipitation, MM = Missing Value Source: NWS Daily Summary

Daily Weather History Graph

Daily Weather History Graph

Search for Another Location

Airport:

Trip Planner

Search our weather history database for the weather conditions in past years. The results will help you decide how hot, cold, wet, or windy it might be!

Date:

Astronomy

Dec. 23, 2012 Rise Set
Actual Time 7:17 AM EST 4:54 PM EST
Civil Twilight 6:48 AM EST 5:23 PM EST
Nautical Twilight 6:15 AM EST 5:55 PM EST
Astronomical Twilight 5:44 AM EST 6:27 PM EST
Moon 1:41 PM EST (12/23) 3:00 AM EST (12/23)
Length of Visible Light 10h 34m
Length of Day
9h 36m
Waxing Gibbous, 81% of the Moon is Illuminated
Dec 23
Waxing Gibbous
Dec 28
Full
Jan 4
Last Quarter
Jan 11
New
Jan 18
First Quarter

Hourly Weather History & Observations

Time (EST) Temp. Windchill Dew Point Humidity Pressure Visibility Wind Dir Wind Speed Gust Speed Precip Events Conditions
12:55 AM 36.0 °F 29.6 °F 23.0 °F 59% 30.06 in 10.0 mi NW 8.1 mph - N/A   Clear
1:55 AM 32.2 °F - 24.4 °F 73% 30.07 in 10.0 mi Calm Calm - N/A   Clear
2:55 AM 30.0 °F - 23.7 °F 77% 30.08 in 10.0 mi Calm Calm - N/A   Clear
4:55 AM 28.9 °F - 24.4 °F 83% 30.08 in 10.0 mi Calm Calm - N/A   Clear
5:55 AM 28.9 °F - 23.5 °F 80% 30.09 in 10.0 mi Calm Calm - N/A   Clear
6:55 AM 29.1 °F - 22.5 °F 76% 30.11 in 10.0 mi Calm Calm - N/A   Clear
7:55 AM 30.4 °F - 22.3 °F 72% 30.12 in 10.0 mi Calm Calm - N/A   Clear
8:55 AM 36.1 °F 32.3 °F 23.2 °F 59% 30.13 in 10.0 mi West 4.6 mph - N/A   Clear
9:55 AM 39.4 °F 33.8 °F 21.9 °F 50% 30.12 in 10.0 mi SSW 8.1 mph - N/A   Clear
10:55 AM 42.4 °F 38.8 °F 21.6 °F 44% 30.09 in 10.0 mi South 5.8 mph - N/A   Clear
11:55 AM 45.3 °F 42.3 °F 19.8 °F 36% 30.06 in 10.0 mi South 5.8 mph - N/A   Clear
12:55 PM 47.7 °F - 20.5 °F 34% 30.03 in 10.0 mi SSW 8.1 mph - N/A   Clear
1:55 PM 50.2 °F - 21.9 °F 33% 30.00 in 10.0 mi Variable 6.9 mph - N/A   Clear
2:55 PM 50.0 °F - 23.4 °F 35% 29.99 in 10.0 mi SSW 5.8 mph - N/A   Clear
3:55 PM 52.3 °F - 26.4 °F 37% 29.98 in 10.0 mi SW 8.1 mph - N/A   Clear
4:55 PM 49.8 °F - 28.0 °F 43% 29.98 in 10.0 mi SSW 6.9 mph - N/A   Clear
5:55 PM 48.4 °F - 27.7 °F 45% 29.98 in 10.0 mi South 5.8 mph - N/A   Partly Cloudy
6:55 PM 48.4 °F - 28.8 °F 47% 29.99 in 10.0 mi Variable 4.6 mph - N/A   Scattered Clouds
7:55 PM 48.6 °F - 27.3 °F 44% 29.99 in 10.0 mi Variable 4.6 mph - N/A   Partly Cloudy
8:55 PM 47.5 °F - 27.3 °F 46% 29.99 in 10.0 mi SW 5.8 mph - N/A   Partly Cloudy
9:55 PM 47.1 °F - 27.0 °F 46% 30.00 in 10.0 mi Variable 4.6 mph - N/A   Scattered Clouds
10:55 PM 46.4 °F - 25.9 °F 45% 30.01 in 10.0 mi Calm Calm - N/A   Clear
11:55 PM 44.6 °F - 25.5 °F 47% 30.00 in 10.0 mi Calm Calm - N/A   Clear